www.pogodaiklimat.ru

ПОГОДА в Конкорде, CA

  • Прогноз погоды в Конкорде
  • Монитор погоды в Конкорде
  • Климат в Конкорде

АРХИВ ПОГОДЫ в Конкорде

Время (UTC), дата Ветер
(напр.,м/с)
 
Видим.   Явления Облачность Т
(С)
Тd
(С)
f
(%)
Тe
(С)
Тes
(С)
Комфортность

P
(гПа)

Po
(гПа)
Тmin
(С)
Tmax
(С)
R
(мм)
SD
(см)
17:53 25.03 Ю  8
{14} 
16 км    8/0 2700 м
[средняя] 
+17.8  +3.3  38  +17  +17    1016.5  1017.0         
18:53 25.03 Ю  7
{12} 
16 км    8/2 1800 м
[средняя] 
+18.9  +6.1  43  +19  +19    1016.6  1017.0         
19:53 25.03 Ю  16 км  слабый дождь  10/10 1290 м  +17.8  +7.2  50  +17  +17    1016.8  1017.3         
20:53 25.03 ЮЗ  10 км  слабый дождь  10/10 1080 м  +16.7  +9.4  62  +15  +15    1016.8  1017.3         
21:39 25.03 ЮЗ  3 км  сильный дождь  10/10 1020 м  +14.4  +11.1  81  +12  +12      1017.3         
21:53 25.03 ЮЗ  5 км  слабый дождь  10/10 1080 м  +14.4  +11.7  84  +13  +13    1016.7  1017.3         
22:38 25.03 ЮЗ  3 км  слабый дождь  10/10 1080 м  +14.4  +11.7  84  +13  +13      1017.0         
22:45 25.03 ЮЗ  2 км  дождь, дымка  10/10 1080 м  +14.4  +12.2  87  +14  +14      1017.0         
22:53 25.03 ЮЗ  5 км  слабый дождь, дымка  10/10 1080 м  +14.4  +12.2  87  +13  +13    1016.4  1017.0  +14.4  +18.9  5.1   
23:53 25.03 Ю  13 км  слабый дождь  10/10 600 м  +14.4  +12.2  87  +13  +13    1016.2  1016.6         
00:08 26.03 Ю  6 км  слабый дождь, дымка  10/10 600 м  +14.4  +12.2  87  +13  +13      1016.6         
00:18 26.03 ЮЗ  6 км  слабый дождь  10/8 600 м
[средняя] 
+14.4  +11.7  84  +13  +13      1016.6         
00:53 26.03 ЮЗ  11 км  слабый дождь  10/0 2250 м
[средняя] 
+13.9  +11.1  83  +13  +13    1016.4  1017.0         
01:53 26.03 Ю  11 км  слабый дождь  10/5 720 м
[средняя] 
+13.3  +11.1  87  +12  +12    1016.4  1017.0      5.1   
02:33 26.03 З  16 км  слабый дождь  10/10 660 м  +13.3  +10.6  84  +11  +11      1017.0         
02:53 26.03 З  16 км  слабый дождь  10/10 660 м  +12.8  +10.6  86  +11  +11    1016.4  1017.0         
03:24 26.03   16 км    10/10 270 м  +12.8  +10.6  86  +12  +12      1017.3         
03:53 26.03 З  14 км  слабый дождь  10/10 270 м  +12.8  +10.6  86  +12  +12    1017.0  1017.7         
04:13 26.03   16 км    10/8 660 м
[средняя] 
+12.8  +10.6  86  +12  +12      1017.3         
04:53 26.03   11 км  слабый дождь  10/10 1020 м  +12.8  +10.6  86  +12  +12    1016.7  1017.3  +12.8  +14.4  6.9   
05:14 26.03   10 км  слабый дождь, дымка  10/10 150 м  +12.8  +10.6  86  +12  +12      1017.3         
05:32 26.03 СЗ  4 км  слабый дождь, дымка  10/10 120 м  +12.2  +10.6  90  +12  +12      1017.3         
05:40 26.03 СЗ  5 км  слабый дождь, дымка  10/10 120 м  +12.2  +10.6  90  +11  +11      1017.7         
05:50 26.03 З  6 км  слабый дождь, дымка  10/10 270 м  +12.0  +10.0  88  +11  +11      1017.7         
05:53 26.03 З  5 км  слабый дождь, дымка  10/10 360 м  +12.2  +10.0  86  +12  +12    1017.0  1017.3         
06:01 26.03   4 км  слабый дождь, дымка  10/10 360 м  +12.2  +10.0  86  +12  +12      1017.3         
06:06 26.03   5 км  слабый дождь, дымка  10/10 360 м  +12.2  +10.0  86  +12  +12      1017.3         
06:35 26.03 ЮЗ  8 км  слабый дождь, дымка  10/10 180 м  +12.2  +10.0  86  +11  +11      1017.3         
06:53 26.03 ЮЗ  16 км    10/10 240 м  +12.2  +9.4  83  +12  +12    1016.8  1017.3         
07:13 26.03 ЮЗ  14 км  слабый дождь  10/10 450 м  +12.2  +9.4  83  +11  +11      1017.3         
07:39 26.03   14 км  слабый дождь  10/10 420 м  +12.2  +10.0  86  +12  +12      1017.3         
07:53 26.03 Ю  11 км  слабый дождь  10/10 390 м  +12.2  +10.0  86  +12  +12    1016.8  1017.3      1.5   
08:35 26.03 ЮЗ  16 км    10/10 270 м  +11.7  +10.0  89  +11  +11      1017.3         
08:53 26.03 З  16 км    10/10 270 м  +11.7  +9.4  86  +10  +10    1016.8  1017.3         
09:11 26.03 З  16 км    10/10 570 м  +11.7  +8.9  83  +10  +10      1017.0         
09:53 26.03 З  16 км    10/0 2100 м
[средняя] 
+11.1  +8.3  83  +10  +10    1016.4  1017.0         
10:53 26.03   16 км    10/0 2100 м
[средняя] 
+11.1  +8.3  83  +10  +10    1016.1  1016.6  +10.6  +12.8  1.5   
11:53 26.03 ЮЗ  16 км    10/0 2100 м
[средняя] 
+10.6  +8.3  86  +9  +9    1016.2  1016.6         
12:53 26.03   16 км    5/0 2100 м
[средняя] 
+9.4  +7.2  86  +9  +9    1016.4  1017.0         
13:53 26.03   13 км    ясно  +10.0  +7.8  86  +9  +9    1016.3  1016.6         
14:53 26.03   16 км    ясно  +10.6  +8.9  89  +10  +11    1016.5  1017.0         
15:53 26.03 З  16 км    ясно  +12.2  +8.3  77  +11  +14    1016.5  1017.0         
16:53 26.03 нст  16 км    ясно  +15.0  +8.3  64  +15  +23    1016.4  1017.0  +9.4  +15.0     
17:53 26.03   16 км    2/2 900 м  +16.7  +6.1  50  +17  +28    1016.1  1016.6         
18:53 26.03 Ю  16 км    8/8 1350 м  +17.8  +6.7  48  +18  +20    1015.5  1016.0         
19:53 26.03 ЮЗ  16 км    5/5 1200 м  +18.9  +5.6  42  +19  +21    1015.2  1015.6         
20:53 26.03 нст  16 км    10/0 3000 м
[средняя] 
+19.4  +6.1  42  +20  +23    1014.1  1014.6         
21:53 26.03 ЮЗ  16 км    10/0 3000 м
[средняя] 
+19.4  +6.1  42  +20  +21    1013.6  1013.9         

 

Местоположение метеостанции Buchanan Field: широта 37.9917 долгота -122.0519 высота над уровнем моря 7 м.

В архиве по умолчанию представлена погода в Конкорде за последние 1-2 суток. Обновление информации о фактической погоде в базе происходит ежечасно! Архивные данные за месяц целиком и за предыдущие месяцы Вы можете получить, выбрав интересующий диапазон дат из раскрывающегося списка и нажав кнопку "Ввод!".

Внимание! Архив погоды МЕТАР в базе сайта хранится не более 60 дней. Нет смысла пытаться выбрать более раннюю дату.

Внимание! Время в таблицах - всемирное. Для получения местного времени необходимо прибавить поправку, которая в Конкорде равна -8 ч.

Ветер - указаны скорость ветра в м/с и направление, откуда дует ветер: С - северный, СВ - северо-восточный, В - восточный, ЮВ - юго-восточный, Ю - южный, ЮЗ - юго-западный, З - западный, СЗ - северо-западный.
Видимость - горизонтальная дальность видимости в метрах или километрах. При видимости от 1 до 10 км при отсутствии осадков обычно наблюдается дымка, при ухудшении видимости до 1 км и менее - туман. В сухую погоду видимость может ухудшаться дымом, пылью или мглою.
Атмосферные явления - указаны явления, наблюдавшиеся в указанный момент времени.
Облачность - указаны через наклонную черту верхняя и нижняя облачность в баллах и высота нижней границы облаков в метрах. Внимание: облачность, как и прочие метеорологические величины в США измеряются автоматическими метеостанциями. Указанные значения в баллах носят условный характер и показывают процент времени, в течение которого, в среднем, лазерный луч высотомера отражался от облаков обратно.
T - Температура воздуха - температура, измеренная на высоте 2 м над землей.
Td - Температура точки росы - температура, при понижении до которой содержащийся в воздухе водяной пар достигнет насыщения.
f - Относительная влажность воздуха - влажноcть воздуха, измеренная на высоте 2 м над землей.
Te - Эффективная температура - температура, которую ощущает одетый по сезону человек в тени. Характеристика душности погоды. При расчете учитывается влияние влажности воздуха и скорости ветра на теплоощущения человека.
Tes - Эффективная температура на солнце - температура, которую ощущает человек, с поправкой на солнечный нагрев. Характеристика знойности погоды. Зависит от высоты солнца над горизонтом, облачности и скорости ветра. Ночью, в пасмурную погоду, а также при ветре 12 м/с и более поправка равна нулю.
P - Атмосферное давление - приведенное к уровню моря атмосферное давление.
Po - Атмосферное давление - измеренное на уровне метеостанции атмосферное давление.
Tmin - Минимальная температура - минимум температуры воздуха на высоте 2 м над землей.
Tmax - Максимальная температура - максимум температуры воздуха на высоте 2 м над землей.
R - Количество осадков - Количество выпавших осадков за 3 или 6 часов, мм.
SD - Снежный покров - Высота снежного покрова, см.